Hangzhou Xiaoshan International Airport

Airport
ICAO code: 
ZSHC
IATA Code: 
HGH
Summary
ICAO Region: 
APAC
Territory: 
Location: 
Xiaoshan, Zhejiang
Serving: 
Hangzhou
Elevation: 
23 ft
Coordinates: 
Aerial View: 
30° 13' 45.998" N, 120° 26' 3.998" E
Metar
Observation
ZSHC 210430Z 08005MPS 9999 SCT020 10/04 Q1026 NOSIG
Station
Hangzhou
Date/Time
2022-01-21 04:30:00
Wind direction
80°
Lowest cloud amount
scattered clouds
Temperature
10°C
Dew point
4°C
Humidity
66%
QNH
1026 hPa
Weather condition
n/a

Hangzhou Xiaoshan International Airport is the principal airport serving Hangzhou, a major city in the Yangtze River Delta region of the People's Republic of China and the provincial capital of Zhejiang.

Runways

Designator Length Width Surface Rops
7/25 3600 45 CON Yes/Yes
Airport map: 
Aerial View: 

SKYbrary Partners:

Safety knowledge contributed by: